Regional Weather Roundup
Issued by NWS

Home | Current Version | Previous Version | Graphics & Text | Print | Product List | Glossary On
Versions: 1 2 3 4 5 6 7 8 9 10 11 12 13 14 15 16 17 18 19 20 21 22 23 24 25 26 27 28 29 30 31 32 33 34 35 36 37 38 39 40 41 42 43 44 45 46 47 48 49 50
000
ASUS45 KABQ 290301
RWRNM
NEW MEXICO REGIONAL WEATHER ROUNDUP
NATIONAL WEATHER SERVICE ALBUQUERQUE NM
900 PM MDT TUE JUL 28 2015

NOTE: "FAIR" MEANS FEW OR NO CLOUDS BELOW 12,000 FEET AGL WITH NO
       SIGNIFICANT WEATHER OR OBSTRUCTIONS TO VISION.

      THIS PRODUCT IS RELEASED AS TWO VERSIONS.  ONE VERSION NEAR
      THE TOP OF THE HOUR CONTAINING PRELIMINARY DATA FROM ALBUQUERQUE
      AND OTHER STATIONS.  A FINAL VERSION WITH ADDITIONAL DATA IS
      ISSUED ABOUT 10 MINUTES AFTER THE HOUR.

NMZ501-503-504-510>518-290400-
NORTHWEST PLATEAU/NORTHCENTRAL MOUNTAINS

CITY           SKY/WX    TMP DP  RH WIND       PRES   REMARKS
FARMINGTON     CLEAR     81  19  10 NW7       30.10R
SANTA FE       CLOUDY    73  50  44 E13       30.27R
TAOS           CLOUDY    64  45  48 SE26      30.32R
ANGEL FIRE     LGT RAIN  57  50  75 SW8       30.47R

$$
NMZ402-403-502-505>509-290400-
WESTCENTRAL MOUNTAINS/SOUTHWEST MOUNTAINS

CITY           SKY/WX    TMP DP  RH WIND       PRES   REMARKS
GALLUP         CLOUDY    77  44  30 S7        30.21R
SILVER CITY      N/A     77  54  44 NE13G18   30.17R

$$
NMZ407-409-411-412-290400-
SOUTHERN DESERTS

CITY           SKY/WX    TMP DP  RH WIND       PRES   REMARKS
DEMING         MOCLDY    81  56  42 NE12G22   30.06R
HOLLOMAN AFB   PTCLDY    75  60  58 VRB5G23   30.07R
ALAMOGORDO     CLOUDY    77  57  50 NE9       30.06R
T OR C         CLOUDY    73  62  68 S7        30.15R

$$
NMZ519>523-290400-
CENTRAL VALLEYS/CENTRAL HIGHLANDS

CITY           SKY/WX    TMP DP  RH WIND       PRES   REMARKS
ALBUQUERQUE    LGT RAIN  81  51  35 SE13      30.17R
DOUBLE EAGLE   PTCLDY    75  54  46 S12       30.19R
MORIARTY ARPT    N/A     68  53  58 E14G23    30.28S
CLINES CORNERS LGT RAIN  62  54  74 E17G23    30.33R
BELEN          MOCLDY    79  49  34 S10       30.15R
SOCORRO        NOT AVBL

$$
NMZ524>526-539-540-290400-
SOUTHCENTRAL MOUNTAINS

CITY           SKY/WX    TMP DP  RH WIND       PRES   REMARKS
RUIDOSO          N/A    N/A N/A N/A MISG        N/A

$$
NMZ527>531-290400-
NORTHEAST HIGHLANDS/NORTHEAST PLAINS

CITY           SKY/WX    TMP DP  RH WIND       PRES   REMARKS
LAS VEGAS      LGT RAIN  61  57  87 NW6       30.35R
RATON          CLOUDY    68  51  54 S12       30.30R
CLAYTON        CLOUDY    67  62  84 S12       30.20R

$$
NMZ532>537-290400-
EASTCENTRAL PLAINS

CITY           SKY/WX    TMP DP  RH WIND       PRES   REMARKS
TUCUMCARI      RAIN      69  66  90 CALM      30.17F
CANNON AFB     PTCLDY    68  64  88 N23G31    30.15R
CLOVIS AIRPORT CLOUDY    66  63  88 NE13G21   30.18R

$$
NMZ028-029-538-290400-
SOUTHEAST PLAINS

CITY           SKY/WX    TMP DP  RH WIND       PRES   REMARKS
ROSWELL        CLOUDY    77  64  64 NE15G24   30.08R
ARTESIA        MOCLDY    82  61  47 E8        30.08R
CARLSBAD       TSTM      81  61  50 N16       29.98R
HOBBS          MOCLDY    81  57  44 N17G29    30.05R


$$


USA.gov is the U.S. government's official web portal to all federal, state and local government web resources and services.